[TLELIST] Archives

 

[list_settings.list_name] Current TLEs

August 16th 2009 PDT

HST 1 20580U 90037B 09224.03928858 +.00000349 +00000-0 +13915-4 0 04336 2 20580 028.4693 097.7770 0003579 156.1857 203.8952 15.00821899858253 ISS (ZARYA) 1 25544U 98067A 09226.85938454 +.00004949 +00000-0 +38952-4 0 04144 2 25544 051.6412 005.6411 0008023 335.7592 161.0630 15.73606517615195 CXO 1 25867U 99040B 09227.33333333 -.00000157 +00000-0 +10000-3 0 03570 2 25867 065.7068 066.9588 7626531 275.6786 001.0612 00.37796323005235 ____________________________________________________________________ These 2-Line ...Continue Reading

[list_settings.list_name] Current TLEs

August 15th 2009 PDT

HST 1 20580U 90037B 09224.03928858 +.00000349 +00000-0 +13915-4 0 04336 2 20580 028.4693 097.7770 0003579 156.1857 203.8952 15.00821899858253 ISS (ZARYA) 1 25544U 98067A 09227.15215278 .00004989 00000-0 39230-4 0 4155 2 25544 051.6404 004.1380 0008063 336.2644 020.2053 15.73609872615230 CXO 1 25867U 99040B 09222.04166667 -.00000016 +00000-0 +10000-3 0 03560 2 25867 065.6732 067.2072 7623874 275.6880 000.6675 00.37808094005217 ____________________________________________________________________ These 2-Line ...Continue Reading

[list_settings.list_name] Current TLEs

August 14th 2009 PDT

HST 1 20580U 90037B 09224.03928858 +.00000349 +00000-0 +13915-4 0 04336 2 20580 028.4693 097.7770 0003579 156.1857 203.8952 15.00821899858253 ISS (ZARYA) 1 25544U 98067A 09226.19939815 .00004604 00000-0 36563-4 0 4103 2 25544 051.6405 009.0276 0008019 332.2678 023.2265 15.73597532615083 CXO 1 25867U 99040B 09222.04166667 -.00000016 +00000-0 +10000-3 0 03560 2 25867 065.6732 067.2072 7623874 275.6880 000.6675 00.37808094005217 ____________________________________________________________________ These 2-Line ...Continue Reading

[list_settings.list_name] Current TLEs

August 13th 2009 PDT

HST 1 20580U 90037B 09221.04681895 +.00000273 +00000-0 +80957-5 0 04327 2 20580 028.4693 117.3019 0003579 124.3827 235.7157 15.00820535857809 ISS (ZARYA) 1 25544U 98067A 09223.87435278 +.00004919 +00000-0 +38794-4 0 03969 2 25544 051.6402 020.9601 0007800 322.5095 172.9419 15.73574002614726 CXO 1 25867U 99040B 09222.04166667 -.00000016 +00000-0 +10000-3 0 03560 2 25867 065.6732 067.2072 7623874 275.6880 000.6675 00.37808094005217 ____________________________________________________________________ These 2-Line ...Continue Reading

[list_settings.list_name] Current TLEs

August 12th 2009 PDT

HST 1 20580U 90037B 09221.04681895 +.00000273 +00000-0 +80957-5 0 04327 2 20580 028.4693 117.3019 0003579 124.3827 235.7157 15.00820535857809 ISS (ZARYA) 1 25544U 98067A 09222.92195612 +.00005076 +00000-0 +39910-4 0 03910 2 25544 051.6402 025.8481 0007822 319.0641 177.5709 15.73564344614572 CXO 1 25867U 99040B 09222.04166667 -.00000016 +00000-0 +10000-3 0 03560 2 25867 065.6732 067.2072 7623874 275.6880 000.6675 00.37808094005217 ____________________________________________________________________ These 2-Line ...Continue Reading

[list_settings.list_name] Current TLEs

August 11th 2009 PDT

HST 1 20580U 90037B 09221.04681895 +.00000273 +00000-0 +80957-5 0 04327 2 20580 028.4693 117.3019 0003579 124.3827 235.7157 15.00820535857809 ISS (ZARYA) 1 25544U 98067A 09223.04274503 .00005025 00000-0 39551-4 0 3927 2 25544 051.6402 025.2282 0007842 319.5327 141.8120 15.73565505614596 CXO 1 25867U 99040B 09222.04166667 -.00000016 +00000-0 +10000-3 0 03560 2 25867 065.6732 067.2072 7623874 275.6880 000.6675 00.37808094005217 ____________________________________________________________________ These 2-Line ...Continue Reading

[list_settings.list_name] Current TLEs

August 10th 2009 PDT

HST 1 20580U 90037B 09219.51733303 +.00000233 +00000-0 +50007-5 0 04316 2 20580 028.4688 127.2853 0003542 109.3121 250.7884 15.00819865857571 ISS (ZARYA) 1 25544U 98067A 09220.88956628 +.00005428 +00000-0 +42404-4 0 03783 2 25544 051.6394 036.2778 0007662 309.4753 186.3395 15.73541776614254 CXO 1 25867U 99040B 09222.04166667 -.00000016 +00000-0 +10000-3 0 03560 2 25867 065.6732 067.2072 7623874 275.6880 000.6675 00.37808094005217 ____________________________________________________________________ These 2-Line ...Continue Reading

[list_settings.list_name] Current TLEs

August 9th 2009 PDT

HST 1 20580U 90037B 09219.51733303 +.00000233 +00000-0 +50007-5 0 04316 2 20580 028.4688 127.2853 0003542 109.3121 250.7884 15.00819865857571 ISS (ZARYA) 1 25544U 98067A 09221.07368331 .00005502 00000-0 42917-4 0 3808 2 25544 051.6397 035.3330 0007642 310.9525 148.5443 15.73544433614283 CXO 1 25867U 99040B 09219.37500000 -.00000095 +00000-0 +10000-3 0 03551 2 25867 065.6602 067.3020 7620347 275.6789 357.6981 00.37805691005201 ____________________________________________________________________ These 2-Line ...Continue Reading

[list_settings.list_name] Current TLEs

August 8th 2009 PDT

HST 1 20580U 90037B 09216.05936093 +.00000257 +00000-0 +68751-5 0 04303 2 20580 028.4681 149.8546 0003459 072.7348 287.3621 15.00819410857058 ISS (ZARYA) 1 25544U 98067A 09220.22737269 .00005127 00000-0 40322-4 0 3737 2 25544 051.6399 039.6753 0007527 307.2629 034.8692 15.73532727614148 CXO 1 25867U 99040B 09219.37500000 -.00000095 +00000-0 +10000-3 0 03551 2 25867 065.6602 067.3020 7620347 275.6789 357.6981 00.37805691005201 ____________________________________________________________________ These 2-Line ...Continue Reading

[list_settings.list_name] Current TLEs

August 7th 2009 PDT

HST 1 20580U 90037B 09216.05936093 +.00000257 +00000-0 +68751-5 0 04303 2 20580 028.4681 149.8546 0003459 072.7348 287.3621 15.00819410857058 ISS (ZARYA) 1 25544U 98067A 09219.04941150 .00004925 00000-0 38932-4 0 3673 2 25544 051.6404 045.7187 0007482 303.2425 201.5995 15.73518273613962 CXO 1 25867U 99040B 09216.70833333 -.00000233 +00000-0 +10000-3 0 03546 2 25867 065.6479 067.3803 7616754 275.6784 354.7079 00.37805023005197 ____________________________________________________________________ These 2-Line ...Continue Reading
  • This mailing list is a public mailing list - anyone may join or leave, at any time.
  • This mailing list is announce-only.

International Space Station (ISS) / Hubble Space Telescope (HST) / Chandra X-Ray Observatory Orbital Data via EMAIL

Privacy Policy:

Private list